DW6558 Weather Reports


Display with metric or nautical units.
time (UTC)temp
F
wind
direction
speed
MPH
gust
MPH
rain 1hr
in
rain 24hr
in
rain mn
in
humidity
%
barometer
mb
20260906131142 48 87 0.0 0.0 0.00 0.00 0.00 65 934.9
20260906130638 48 130 0.0 0.0 0.00 0.00 0.00 66 934.7
20260906130133 48 67 0.0 0.0 0.00 0.00 0.00 67 934.9
20260906125630 48 54 0.0 0.0 0.00 0.00 0.00 67 934.8
20260906125129 48 56 0.0 0.0 0.00 0.00 0.00 66 934.8
20260906124625 47 51 0.0 0.0 0.00 0.00 0.00 67 934.5
20260906124120 47 77 0.0 0.0 0.00 0.00 0.00 67 934.4
20260906123620 47 56 0.0 0.0 0.00 0.00 0.00 67 934.5
20260906123115 48 112 0.0 0.0 0.00 0.00 0.00 66 934.7
20260906122614 48 97 0.0 0.0 0.00 0.00 0.00 65 934.4
20260906122110 49 64 0.0 0.0 0.00 0.00 0.00 64 935.0
20260906121606 49 44 0.0 0.0 0.00 0.00 0.00 63 934.9
20260906121102 50 97 0.0 0.0 0.00 0.00 0.00 61 934.9
20260906120557 51 142 0.0 0.0 0.00 0.00 0.00 59 934.8
20260906120054 50 60 0.0 5.0 0.00 0.00 0.00 61 934.8
20260906115555 48 13 0.0 0.0 0.00 0.00 0.00 65 934.4
20260906115050 49 104 0.0 0.0 0.00 0.00 0.00 65 934.5
20260906114549 49 127 0.0 1.0 0.00 0.00 0.00 65 934.9
20260906114045 48 124 0.0 0.0 0.00 0.00 0.00 65 934.7
20260906113544 49 94 0.0 0.0 0.00 0.00 0.00 65 934.9
20260906113039 49 129 0.0 0.0 0.00 0.00 0.00 65 934.8
20260906112534 49 126 0.0 0.0 0.00 0.00 0.00 64 934.9
20260906112031 49 122 0.0 0.0 0.00 0.00 0.00 64 934.9
20260906111530 50 113 0.0 0.0 0.00 0.00 0.00 62 934.8
20260906111026 50 94 0.0 0.0 0.00 0.00 0.00 62 934.9
20260906110525 50 143 0.0 0.0 0.00 0.00 0.00 62 934.9
20260906110024 50 99 0.0 1.0 0.00 0.00 0.00 61 934.9
20260906105520 50 72 0.0 1.0 0.00 0.00 0.00 61 934.5
20260906105016 50 132 0.0 1.0 0.00 0.00 0.00 61 934.9
20260906104514 50 130 1.0 1.0 0.00 0.00 0.00 61 934.8
20260906104009 50 131 0.0 1.0 0.00 0.00 0.00 61 934.9
20260906103507 51 123 0.0 0.0 0.00 0.00 0.00 60 935.0
20260906103003 51 132 0.0 0.0 0.00 0.00 0.00 58 935.0
20260906102502 52 167 0.0 1.0 0.00 0.00 0.00 57 935.1
20260906102002 52 92 0.0 1.0 0.00 0.00 0.00 57 934.9
20260906101457 51 104 0.0 2.0 0.00 0.00 0.00 58 934.8
20260906100953 51 79 0.0 0.0 0.00 0.00 0.00 59 934.7
20260906100448 51 113 0.0 0.0 0.00 0.00 0.00 60 934.7
20260906095948 50 116 0.0 0.0 0.00 0.00 0.00 60 934.5
20260906095443 49 140 0.0 0.0 0.00 0.00 0.00 63 934.5
20260906094938 50 55 0.0 0.0 0.00 0.00 0.00 63 934.5
20260906094432 50 44 0.0 0.0 0.00 0.00 0.00 62 934.5
20260906093928 50 67 0.0 1.0 0.00 0.00 0.00 62 934.5
20260906093424 50 66 0.0 0.0 0.00 0.00 0.00 62 934.7
20260906092919 50 114 0.0 0.0 0.00 0.00 0.00 62 934.4
20260906092418 50 122 0.0 0.0 0.00 0.00 0.00 62 934.3
20260906091914 50 104 0.0 0.0 0.00 0.00 0.00 62 934.3
20260906091409 51 65 0.0 0.0 0.00 0.00 0.00 61 934.4
20260906090906 51 57 0.0 0.0 0.00 0.00 0.00 60 934.3
20260906090405 51 80 0.0 0.0 0.00 0.00 0.00 60 934.3
20260906085900 51 60 0.0 0.0 0.00 0.00 0.00 59 934.3
20260906085359 51 48 0.0 0.0 0.00 0.00 0.00 60 934.3
20260906084854 51 51 0.0 0.0 0.00 0.00 0.00 60 934.4
20260906084353 51 75 0.0 0.0 0.00 0.00 0.00 60 934.2
20260906083848 52 76 0.0 0.0 0.00 0.00 0.00 59 934.3
20260906083344 52 104 0.0 0.0 0.00 0.00 0.00 59 934.3
20260906082843 52 71 0.0 0.0 0.00 0.00 0.00 58 934.2
20260906082338 52 66 0.0 0.0 0.00 0.00 0.00 58 934.3
20260906081834 52 68 0.0 0.0 0.00 0.00 0.00 59 934.4
20260906081330 53 73 0.0 0.0 0.00 0.00 0.00 57 934.2
20260906080826 52 85 0.0 0.0 0.00 0.00 0.00 58 934.3
20260906080322 52 75 0.0 0.0 0.00 0.00 0.00 59 934.4
20260906075821 53 67 0.0 0.0 0.00 0.00 0.00 57 934.2
20260906075321 53 69 0.0 0.0 0.00 0.00 0.00 57 934.3
20260906074817 53 98 0.0 0.0 0.00 0.00 0.00 56 934.5
20260906074316 54 76 0.0 0.0 0.00 0.00 0.00 56 934.7
20260906073815 54 77 0.0 0.0 0.00 0.00 0.00 55 934.4
20260906073310 54 52 0.0 0.0 0.00 0.00 0.00 57 934.4
20260906072807 54 55 0.0 0.0 0.00 0.00 0.00 55 934.3
20260906072305 54 51 0.0 0.0 0.00 0.00 0.00 56 934.4
20260906071758 54 78 0.0 0.0 0.00 0.00 0.00 55 934.4
20260906071258 54 59 0.0 0.0 0.00 0.00 0.00 58 934.3
20260906070755 54 69 0.0 0.0 0.00 0.00 0.00 56 934.4
20260906070250 53 89 0.0 0.0 0.00 0.00 0.00 58 934.3
20260906065750 53 65 0.0 0.0 0.00 0.00 0.00 60 934.3
20260906065245 53 65 0.0 0.0 0.00 0.00 0.00 58 934.3
20260906064741 53 67 0.0 0.0 0.00 0.00 0.00 58 934.4
20260906064236 54 83 0.0 0.0 0.00 0.00 0.00 58 934.2
20260906063731 54 82 0.0 0.0 0.00 0.00 0.00 58 934.2
20260906063227 53 84 0.0 0.0 0.00 0.00 0.00 59 934.1
20260906062722 54 83 0.0 0.0 0.00 0.00 0.00 59 934.2
20260906062221 54 87 0.0 0.0 0.00 0.00 0.00 58 934.2
20260906061717 55 110 0.0 0.0 0.00 0.00 0.00 56 934.2
20260906061213 55 96 0.0 0.0 0.00 0.00 0.00 55 934.2
20260906060708 56 97 0.0 0.0 0.00 0.00 0.00 54 934.4
20260906060206 55 113 0.0 0.0 0.00 0.00 0.00 56 934.0
20260906055701 55 94 0.0 0.0 0.00 0.00 0.00 56 933.7
20260906055156 55 70 0.0 0.0 0.00 0.00 0.00 55 934.1
20260906054651 56 74 0.0 0.0 0.00 0.00 0.00 55 934.1
20260906054146 56 68 0.0 0.0 0.00 0.00 0.00 54 934.1
20260906053643 56 71 0.0 0.0 0.00 0.00 0.00 54 933.7
20260906053137 56 90 0.0 0.0 0.00 0.00 0.00 54 934.1
20260906052633 56 72 0.0 0.0 0.00 0.00 0.00 53 934.0
20260906052130 56 75 0.0 0.0 0.00 0.00 0.00 53 933.9
20260906051626 56 66 0.0 0.0 0.00 0.00 0.00 52 934.0
20260906051125 56 84 0.0 0.0 0.00 0.00 0.00 52 934.0
20260906050621 56 82 0.0 0.0 0.00 0.00 0.00 51 933.9
20260906050116 57 65 0.0 0.0 0.00 0.00 0.00 51 934.0
20260906045614 57 64 0.0 0.0 0.00 0.00 0.00 50 933.7
20260906045110 57 78 0.0 0.0 0.00 0.00 0.00 50 933.9
20260906044606 58 82 0.0 2.0 0.00 0.00 0.00 48 934.2
20260906044100 58 60 0.0 0.0 0.00 0.00 0.00 46 933.9
20260906043557 58 107 0.0 0.0 0.00 0.00 0.00 45 934.0
20260906043052 58 52 0.0 0.0 0.00 0.00 0.00 47 933.9
20260906042551 59 57 0.0 0.0 0.00 0.00 0.00 45 933.7
20260906042046 59 67 0.0 0.0 0.00 0.00 0.00 45 933.6
20260906041543 58 72 0.0 0.0 0.00 0.00 0.00 46 933.5
20260906041043 58 67 0.0 0.0 0.00 0.00 0.00 46 933.2
20260906040538 58 63 0.0 0.0 0.00 0.00 0.00 47 933.5
20260906040033 59 65 0.0 0.0 0.00 0.00 0.00 45 933.5
20260906035528 59 70 0.0 0.0 0.00 0.00 0.00 44 933.3
20260906035025 59 74 0.0 0.0 0.00 0.00 0.00 44 932.7
20260906034524 59 44 0.0 0.0 0.00 0.00 0.00 44 932.8
20260906034019 60 55 0.0 0.0 0.00 0.00 0.00 44 932.9
20260906033514 60 62 0.0 0.0 0.00 0.00 0.00 41 932.7
20260906033010 61 71 0.0 0.0 0.00 0.00 0.00 41 932.8
20260906032507 61 66 0.0 0.0 0.00 0.00 0.00 39 932.7
20260906032007 62 62 0.0 0.0 0.00 0.00 0.00 38 932.6
20260906031502 62 61 0.0 0.0 0.00 0.00 0.00 38 932.4
20260906030957 63 91 0.0 0.0 0.00 0.00 0.00 36 932.3
20260906030451 63 67 0.0 1.0 0.00 0.00 0.00 36 932.5
20260906025946 64 66 0.0 0.0 0.00 0.00 0.00 36 932.0
20260906025446 64 52 0.0 0.0 0.00 0.00 0.00 37 932.1
20260906024944 65 51 0.0 0.0 0.00 0.00 0.00 40 931.7
20260906024444 65 61 0.0 0.0 0.00 0.00 0.00 37 931.9
20260906023939 66 62 0.0 0.0 0.00 0.00 0.00 33 931.6
20260906023436 66 19 0.0 0.0 0.00 0.00 0.00 33 931.8
20260906022935 66 18 0.0 0.0 0.00 0.00 0.00 34 932.8
20260906022431 67 19 0.0 0.0 0.00 0.00 0.00 35 933.2
20260906021926 68 18 0.0 0.0 0.00 0.00 0.00 29 933.3
20260906021426 69 18 0.0 0.0 0.00 0.00 0.00 33 933.3
20260906020920 69 18 0.0 0.0 0.00 0.00 0.00 31 933.1
20260906020415 69 18 0.0 0.0 0.00 0.00 0.00 32 933.3
20260906015909 70 18 0.0 0.0 0.00 0.00 0.00 29 933.2
20260906015409 71 18 0.0 0.0 0.00 0.00 0.00 27 933.3
20260906014903 72 18 0.0 0.0 0.00 0.00 0.00 27 933.2
20260906014402 73 18 0.0 0.0 0.00 0.00 0.00 25 933.2
20260906013859 74 12 0.0 0.0 0.00 0.00 0.00 24 933.2
20260906013354 75 12 0.0 0.0 0.00 0.00 0.00 23 933.4
20260906012849 76 0 0.0 0.0 0.00 0.00 0.00 22 933.5
20260906012344 77 9 0.0 0.0 0.00 0.00 0.00 21 933.4
20260906011844 77 307 0.0 0.0 0.00 0.00 0.00 23 933.5
20260906011339 78 2 0.0 0.0 0.00 0.00 0.00 21 933.3
20260906010835 78 232 2.0 8.0 0.00 0.00 0.00 20 933.5
20260906010331 78 195 4.0 9.0 0.00 0.00 0.00 21 933.5
20260906005826 79 191 5.0 11.0 0.00 0.00 0.00 21 933.4
20260906005325 80 307 2.0 2.0 0.00 0.00 0.00 21 933.6
20260906004824 80 270 0.0 2.0 0.00 0.00 0.00 20 933.4
20260906004324 80 273 0.0 6.0 0.00 0.00 0.00 19 933.5
20260906003819 80 191 0.0 2.0 0.00 0.00 0.00 20 933.9
20260906003314 80 244 7.0 9.0 0.00 0.00 0.00 20 933.6
20260906002810 81 326 3.0 9.0 0.00 0.00 0.00 20 933.7
20260906002309 80 342 4.0 7.0 0.00 0.00 0.00 19 933.5
20260906001805 81 278 3.0 13.0 0.00 0.00 0.00 19 933.5
20260906001300 81 244 2.0 7.0 0.00 0.00 0.00 18 933.4
20260906000756 82 323 0.0 8.0 0.00 0.00 0.00 19 933.6
20260906000256 82 312 1.0 3.0 0.00 0.00 0.00 19 933.5
20260905235750 81 232 6.0 9.0 0.00 0.00 0.00 19 933.6
20260905235250 81 263 9.0 10.0 0.00 0.00 0.00 18 933.5
20260905234746 81 237 11.0 16.0 0.00 0.00 0.00 18 933.4
20260905234241 82 234 3.0 8.0 0.00 0.00 0.00 20 933.3
20260905233736 82 229 1.0 9.0 0.00 0.00 0.00 20 933.2
20260905233235 82 219 2.0 5.0 0.00 0.00 0.00 19 933.2
20260905232730 81 242 5.0 13.0 0.00 0.00 0.00 19 933.5
20260905232226 82 247 7.0 9.0 0.00 0.00 0.00 19 933.3
20260905231721 81 250 7.0 14.0 0.00 0.00 0.00 19 933.2
20260905231217 82 231 0.0 10.0 0.00 0.00 0.00 19 933.2
20260905230713 82 339 5.0 16.0 0.00 0.00 0.00 19 933.3
20260905230211 82 278 4.0 14.0 0.00 0.00 0.00 18 933.2
20260905225710 82 346 0.0 13.0 0.00 0.00 0.00 19 933.3
20260905225206 82 211 8.0 17.0 0.00 0.00 0.00 19 933.4
20260905224705 82 193 4.0 9.0 0.00 0.00 0.00 19 933.2
20260905224200 82 250 7.0 11.0 0.00 0.00 0.00 19 933.4
20260905223656 82 244 5.0 16.0 0.00 0.00 0.00 18 933.4
20260905223153 82 236 9.0 18.0 0.00 0.00 0.00 20 933.5
20260905222648 82 338 3.0 7.0 0.00 0.00 0.00 19 933.6
20260905222142 81 224 10.0 15.0 0.00 0.00 0.00 20 933.6
20260905221638 82 173 3.0 13.0 0.00 0.00 0.00 20 933.5
20260905221135 81 302 0.0 22.0 0.00 0.00 0.00 19 933.7
20260905220630 81 208 8.0 17.0 0.00 0.00 0.00 18 933.5
20260905220126 82 235 6.0 15.0 0.00 0.00 0.00 20 933.6
20260905215625 82 247 8.0 14.0 0.00 0.00 0.00 20 933.7
20260905215121 82 220 4.0 13.0 0.00 0.00 0.00 19 933.7
20260905214618 82 221 3.0 14.0 0.00 0.00 0.00 20 933.9
20260905214117 81 181 6.0 11.0 0.00 0.00 0.00 20 933.7
20260905213613 82 252 9.0 13.0 0.00 0.00 0.00 20 933.7
20260905213109 82 220 6.0 18.0 0.00 0.00 0.00 20 933.9
20260905212608 82 246 10.0 17.0 0.00 0.00 0.00 19 933.7
20260905212108 81 219 3.0 15.0 0.00 0.00 0.00 19 933.9
20260905211603 81 231 5.0 20.0 0.00 0.00 0.00 20 933.9
20260905211059 81 239 7.0 15.0 0.00 0.00 0.00 20 933.9
20260905210554 81 233 9.0 11.0 0.00 0.00 0.00 22 934.2
20260905210049 81 204 13.0 17.0 0.00 0.00 0.00 21 933.9
20260905205549 81 239 6.0 20.0 0.00 0.00 0.00 22 934.1
20260905205048 81 309 4.0 11.0 0.00 0.00 0.00 22 933.9
20260905204543 80 316 3.0 9.0 0.00 0.00 0.00 22 934.0
20260905204038 80 269 8.0 10.0 0.00 0.00 0.00 24 934.1
20260905203538 79 246 1.0 8.0 0.00 0.00 0.00 23 934.2
20260905203033 80 214 1.0 6.0 0.00 0.00 0.00 24 934.2
20260905202528 81 219 0.0 3.0 0.00 0.00 0.00 24 934.3
20260905202024 80 201 2.0 8.0 0.00 0.00 0.00 22 934.3
20260905201520 80 256 3.0 10.0 0.00 0.00 0.00 23 934.5
20260905201019 80 187 3.0 10.0 0.00 0.00 0.00 23 934.3
20260905200515 79 235 3.0 8.0 0.00 0.00 0.00 23 934.4
20260905200014 79 210 9.0 11.0 0.00 0.00 0.00 23 934.5
20260905195508 79 240 6.0 11.0 0.00 0.00 0.00 23 934.3
20260905195004 79 180 3.0 9.0 0.00 0.00 0.00 22 934.5
20260905194503 79 244 6.0 14.0 0.00 0.00 0.00 23 934.8
20260905194003 78 191 0.0 10.0 0.00 0.00 0.00 23 934.7
20260905193458 79 207 1.0 8.0 0.00 0.00 0.00 23 934.5
20260905192953 79 248 3.0 8.0 0.00 0.00 0.00 24 934.7
20260905192449 79 242 5.0 7.0 0.00 0.00 0.00 23 934.8
20260905191945 79 215 5.0 8.0 0.00 0.00 0.00 22 935.0
20260905191443 78 240 3.0 14.0 0.00 0.00 0.00 23 934.8
20260905190943 77 61 0.0 8.0 0.00 0.00 0.00 24 934.9
20260905190441 78 262 2.0 5.0 0.00 0.00 0.00 22 935.0
20260905185940 77 199 0.0 1.0 0.00 0.00 0.00 22 935.0
20260905185435 78 250 8.0 13.0 0.00 0.00 0.00 22 935.1
20260905184934 77 230 6.0 10.0 0.00 0.00 0.00 24 935.2
20260905184428 77 173 6.0 14.0 0.00 0.00 0.00 24 935.1
20260905183927 77 262 0.0 10.0 0.00 0.00 0.00 25 935.3
20260905183422 77 112 0.0 3.0 0.00 0.00 0.00 24 935.2
20260905182917 76 236 0.0 3.0 0.00 0.00 0.00 24 935.5
20260905182416 76 326 0.0 11.0 0.00 0.00 0.00 25 935.5
20260905181913 76 233 0.0 10.0 0.00 0.00 0.00 24 935.5
20260905181413 76 271 3.0 13.0 0.00 0.00 0.00 24 935.5
20260905180912 77 214 5.0 7.0 0.00 0.00 0.00 25 935.8
20260905180407 77 201 1.0 7.0 0.00 0.00 0.00 25 935.7
20260905175907 75 210 0.0 1.0 0.00 0.00 0.00 25 935.7
20260905175406 75 222 7.0 15.0 0.00 0.00 0.00 25 935.7
20260905174907 77 199 8.0 13.0 0.00 0.00 0.00 23 935.7
20260905174402 76 107 7.0 13.0 0.00 0.00 0.00 25 935.8
20260905173858 76 319 0.0 13.0 0.00 0.00 0.00 25 935.8
20260905173354 75 85 0.0 3.0 0.00 0.00 0.00 27 936.0
20260905172849 75 298 5.0 13.0 0.00 0.00 0.00 26 935.8
20260905172347 74 187 4.0 15.0 0.00 0.00 0.00 27 935.7
20260905171843 75 198 11.0 14.0 0.00 0.00 0.00 25 935.6
20260905171340 75 191 6.0 11.0 0.00 0.00 0.00 26 935.6
20260905170836 74 210 8.0 13.0 0.00 0.00 0.00 26 935.9
20260905170332 74 174 10.0 13.0 0.00 0.00 0.00 25 935.6
20260905165831 73 256 1.0 10.0 0.00 0.00 0.00 26 935.6
20260905165326 74 207 9.0 13.0 0.00 0.00 0.00 28 935.8
20260905164826 73 235 1.0 13.0 0.00 0.00 0.00 29 935.6
20260905164321 73 190 2.0 11.0 0.00 0.00 0.00 30 935.8
20260905163816 73 173 8.0 15.0 0.00 0.00 0.00 29 935.5
20260905163313 72 234 9.0 13.0 0.00 0.00 0.00 30 935.7
20260905162808 72 182 5.0 9.0 0.00 0.00 0.00 31 935.5
20260905162305 72 184 8.0 14.0 0.00 0.00 0.00 31 935.3
20260905161803 71 94 0.0 11.0 0.00 0.00 0.00 34 935.5
20260905161302 71 267 8.0 11.0 0.00 0.00 0.00 32 935.6
20260905160801 71 164 0.0 2.0 0.00 0.00 0.00 32 935.3
20260905160254 71 263 0.0 8.0 0.00 0.00 0.00 32 935.7
20260905155749 71 217 1.0 14.0 0.00 0.00 0.00 32 935.2
20260905155248 70 239 4.0 11.0 0.00 0.00 0.00 32 935.5
20260905154742 70 183 6.0 13.0 0.00 0.00 0.00 33 935.5
20260905154239 70 341 0.0 0.0 0.00 0.00 0.00 35 935.5
20260905153734 69 194 1.0 2.0 0.00 0.00 0.00 37 935.6
20260905153230 69 253 0.0 1.0 0.00 0.00 0.00 39 935.6
20260905152724 68 199 8.0 9.0 0.00 0.00 0.00 36 935.7
20260905152219 67 273 0.0 0.0 0.00 0.00 0.00 42 935.8
20260905151718 66 3 0.0 1.0 0.00 0.00 0.00 46 935.8
20260905151215 66 25 0.0 0.0 0.00 0.00 0.00 46 935.6
20260905150709 64 22 0.0 0.0 0.00 0.00 0.00 49 935.8
20260905150208 65 66 0.0 0.0 0.00 0.00 0.00 49 935.6
20260905145706 65 66 0.0 0.0 0.00 0.00 0.00 51 935.5
20260905145201 65 69 0.0 0.0 0.00 0.00 0.00 51 935.2
20260905144700 64 65 0.0 0.0 0.00 0.00 0.00 51 935.3
20260905144200 62 67 0.0 0.0 0.00 0.00 0.00 53 935.2
20260905143700 62 73 0.0 0.0 0.00 0.00 0.00 54 935.3
20260905143159 61 131 0.0 0.0 0.00 0.00 0.00 54 935.2
20260905142658 60 122 0.0 0.0 0.00 0.00 0.00 55 935.0
20260905142153 60 95 0.0 0.0 0.00 0.00 0.00 56 935.0
20260905141648 59 103 0.0 0.0 0.00 0.00 0.00 56 935.0
20260905141144 58 77 0.0 0.0 0.00 0.00 0.00 58 935.1
20260905140639 58 101 0.0 0.0 0.00 0.00 0.00 58 934.8
20260905140138 57 108 0.0 0.0 0.00 0.00 0.00 58 934.9
20260905135634 57 102 0.0 0.0 0.00 0.00 0.00 58 935.0
20260905135129 56 103 0.0 0.0 0.00 0.00 0.00 60 934.8
20260905134624 56 69 0.0 2.0 0.00 0.00 0.00 59 934.8
20260905134122 55 55 0.0 0.0 0.00 0.00 0.00 60 934.7
20260905133619 55 63 0.0 0.0 0.00 0.00 0.00 61 934.5
20260905133118 52 103 0.0 0.0 0.00 0.00 0.00 65 934.4
20260905132618 50 75 0.0 0.0 0.00 0.00 0.00 68 934.4
20260905132113 50 87 0.0 0.0 0.00 0.00 0.00 69 934.3
20260905131608 50 71 0.0 0.0 0.00 0.00 0.00 68 934.3